COSMOS 2251 DEB, 33928

Orbit data source: Space-Track

COSMOS 2251 DEB, 33928 is space debris in LEO originally from a launch on Wed, 16 Jun 1993 UTC launched from the Plesetsk Missile And Space Complex (PKMTR). The debris from Iridium 33, an American commercial communications satellite, has been tracked extensively since its accidental collision with the defunct Russian satellite Cosmos 2251 in 2009. This event, occurring at high speed in low Earth orbit (LEO), generated thousands of pieces of space debris, significantly increasing the risk of further collisions. The Iridium 33 debris cloud has impacted space traffic management and orbital debris mitigation strategies, making it a subject of ongoing study in space situational awareness.

Loading next visibility...
Identifier
33928, 1993-036EH
Orbit
LEO
Country
Flag of CISCIS
Related business
Manufacturer
Unknown
Mission
Spacecraft
Bus & Motor
Unknown
Mass
Unknown
Launch date (UTC)
1993-06-16 (33 years ago)
Launch vehicle
Unknown
Launch site
Plesetsk Missile And Space Complex (PKMTR)
Object type
Payload
Rocket body
Debris
Shape & HBR
Unknown shape, 0.1 m
Radar Cross Section
Small (<0.1 m²)

Expand to show TLE details & history
Last TLE update: 1 day ago

TLE from 1 day ago
0 COSMOS 2251 DEB
1 33928U 93036EH  26070.85996655  .00001368  00000-0  37043-3 0  9992
2 33928  73.9228 244.7375 0060398 161.4810 198.8567 14.47628219899348
Epoch: 2026-03-11T20:38Z
TLE epoch observation values (Epoch: 2026-03-11T20:38:21.109Z)
Latitude
-0.00003°
Longitude
125.63139°
Altitude
776.705 km
Speed
7.444 km/s
True Right ascension
16h 18m 56s
True Declination
0° 00' 00"
Sunlit
Object was in daylight at epoch
Visualization orbit readout
Latitude
Unknown
Longitude
Unknown
Altitude
Unknown
Speed
Unknown
Apparent Right ascension
Unknown
Apparent Declination
Unknown
Sunlit
N/A
Visualization observer readout
Local Sidereal Time
01:00:47
Azimuth
Unknown
Elevation
Unknown
Doppler factor
Unknown
Orbital elements
Apogee altitude
773.964 km
Perigee altitude
688.088 km
Semi-major axis
7,109.163 km
Eccentricity
0.00604
Inclination
73.9228°
RAAN
244.7375°
Arg. of periapsis
161.481°
True anomaly
198.6346°
Mean anomaly
198.8567°
Eccentric anomaly
198.74549°
Mean motion
3.62089 °/min
Orbital period
99.42 mins
BSTAR
0.00037043
Loading maneuver chart data...
Computing Atmospheric mass density...

Documentation

Showing up to 5 results
|